Vertical_Velocity
-2 10 -3 -7 -2 -1 1 2 1 -2 -1 6 -1 -0 -0 -0 2 2 -1 0 -0 1 1 0 1 0 -1 -0 3 3 3 6 3 -1 -2 3 -3 0 4 -6 2 3 -0 4
11 -2 -8 0 1 2 2 1 -4 -1 0 8 -1 -3 -1 -0 -2 -0 -1 -0 -1 1 -2 3 1 1 3 2 1 0 8 1 1 5 4 -3 4 2 3 5 -3 2 3 0
0 1 1 3 1 6 -1 1 -1 2 -2 0 4 1 3 0 1 1 -2 -1 -0 1 6 0 1 1 2 1 0 3 1 0 -2 -0 -1 -1 4 4 1 2 4 -0 0 3
-2 -7 1 3 0 3 4 -2 1 2 6 4 6 -2 2 -0 -1 1 -1 0 -0 5 3 3 2 1 -0 -1 2 3 -1 -0 2 -6 -1 1 -1 1 -2 2 0 2 2 2
-7 1 2 4 -12 2 -12 1 0 0 1 5 5 9 -6 1 -2 -1 -1 -1 2 -1 2 -3 -1 -4 -0 1 1 0 2 -1 -5 -1 -6 -3 -2 4 1 5 1 -0 2 -0
-3 -2 3 -11 -3 -1 -3 5 2 2 3 8 -2 8 -9 2 1 -0 1 -0 -1 1 0 4 3 -4 2 1 1 -1 1 3 -4 -2 -3 9 -1 4 -2 0 -0 1 -1 1
5 -2 1 2 5 6 9 9 4 9 10 -4 1 5 -8 1 1 -1 -1 -1 2 -0 1 0 -2 -1 1 2 1 3 3 2 -1 -4 2 -1 0 -2 -2 5 7 -0 -1 0
1 14 3 -1 -5 -11 -6 -1 3 -2 1 -2 2 -2 3 0 -1 -1 -2 -0 0 3 4 2 2 4 6 2 1 -0 0 0 6 -0 -1 -4 1 -8 -3 0 -2 -1 2 4
2 -2 3 2 -1 8 -1 9 -15 7 1 8 -4 -0 5 1 2 1 0 1 1 2 2 -2 3 8 -2 -1 -3 4 1 1 1 4 -3 -4 0 -5 -2 4 5 5 2 3
-1 3 -2 2 5 2 8 -12 11 3 4 -1 -0 -1 -3 2 0 1 1 0 1 2 0 3 3 -1 -5 -7 -1 -1 -0 2 1 0 -3 -1 -3 -1 -1 0 1 3 3 3
1 10 10 7 2 -6 8 4 4 8 4 7 1 -4 2 -1 -2 -1 -0 -0 0 1 0 1 3 -3 3 -5 -6 1 -3 -1 2 3 -1 -1 -1 0 -3 1 -1 -1 5 -1
-11 -1 1 -13 0 1 -5 -7 -2 8 -2 -1 7 -2 -0 -1 -1 -1 1 -2 2 0 -5 9 -3 -2 -2 -2 -1 -1 -2 1 3 2 4 -4 -1 5 -5 -4 -2 -1 -1 3
-1 -1 4 12 16 8 2 -2 -0 0 3 -4 8 -0 1 1 2 1 1 2 1 2 6 -6 0 1 -2 -2 0 -3 -4 3 1 1 -1 -2 -0 -2 1 0 -6 0 1 -1
3 1 3 -1 2 -4 8 1 0 1 6 -7 -6 -2 4 2 0 3 1 2 -1 3 -2 2 1 -2 -1 -1 -2 -5 0 1 -0 0 2 -1 -1 3 -3 -0 -1 3 -1 -2
4 0 3 -2 0 1 0 -1 -0 3 -7 12 -10 1 -0 -2 -2 1 -0 5 -2 -3 3 0 1 -1 1 0 0 -7 2 2 -4 2 2 0 -4 -1 1 2 0 -0 -1 -0
1 -2 2 -2 0 1 1 -1 0 -0 -2 1 1 -1 1 2 1 -0 0 1 -0 1 2 -4 -1 -0 -3 0 -1 5 -1 -0 2 0 1 0 0 -1 1 -0 -1 -0 -1 -2
2 2 3 -7 -0 1 10 -7 -2 -1 0 -0 2 1 0 4 2 1 0 1 5 -2 -3 -2 -2 -2 -3 -1 1 -1 8 -1 -1 1 3 2 3 -1 0 1 3 3 4 1
0 2 2 -4 3 7 10 0 -0 1 -1 0 0 1 -1 -2 3 1 10 -6 -1 -2 -2 -0 -2 -3 -1 1 -1 2 -1 5 2 0 3 1 0 6 1 4 3 1 3 3
2 1 3 5 -0 -8 9 3 2 3 1 -1 -0 1 2 2 -6 6 1 0 -2 -2 -3 -2 -3 -4 -4 -1 1 0 -1 4 7 0 3 3 1 2 1 -1 -1 -1 -1 3
1 2 7 4 7 -2 2 3 -1 1 2 -0 -1 0 -2 2 6 7 -0 2 0 -2 -3 -1 -0 -0 -0 -1 -1 0 2 3 5 13 23 3 1 1 4 4 2 -0 1 0
3 2 -1 0 -1 -1 3 0 -0 15 10 1 -1 -1 -1 1 5 -2 -1 0 0 0 1 -2 -1 -0 -1 -2 2 2 3 4 3 2 -2 0 3 3 2 2 2 2 0 2
-2 2 -2 5 5 2 -1 5 12 10 1 -0 2 2 -4 -1 0 1 -1 -2 -1 -0 1 1 -1 -1 2 0 3 1 -0 3 4 -1 3 4 2 2 -0 1 7 3 4 3
3 8 8 5 9 3 -1 1 -3 -1 -2 3 -2 2 -0 -2 0 -2 -1 -3 1 1 2 -0 0 -1 -4 -0 7 1 1 6 6 6 3 2 0 -3 2 -15 -1 -3 -2 -0
2 -1 2 3 5 1 1 -2 0 1 3 1 1 -1 3 -3 -3 -3 1 -1 -1 0 0 1 1 -0 -5 1 -1 -1 2 4 4 3 -3 6 10 -6 10 -0 4 4 2 0
4 3 -1 1 3 2 1 3 -0 -1 -1 0 1 -0 -3 -3 -1 -2 2 0 -1 0 1 3 0 -3 -4 0 -2 0 2 2 -2 -5 -3 -3 -1 4 -1 -5 -1 -0 -4 -0
-4 -5 1 2 0 -2 1 -1 0 -2 -2 0 -2 -4 0 -3 -3 1 1 2 1 2 2 -0 -2 3 0 -0 0 1 -0 1 1 -1 -3 -1 1 0 -2 -3 -3 2 -1 -0
Height
1505 1503 1500 1492 1492 1489 1494 1497 1499 1493 1491 1494 1486 1487 1484 1487 1489 1490 1494 1498 1501 1502 1505 1507 1510 1512 1513 1513 1514 1516 1516 1517 1518 1518 1518 1518 1519 1520 1520 1518 1520 1523 1525 1529
1503 1500 1488 1490 1491 1495 1496 1498 1495 1490 1493 1493 1484 1482 1479 1484 1485 1486 1491 1494 1497 1499 1501 1504 1507 1509 1510 1510 1511 1514 1515 1515 1514 1514 1513 1514 1513 1512 1512 1513 1513 1516 1519 1523
1490 1484 1486 1490 1493 1497 1493 1494 1492 1496 1490 1485 1488 1482 1478 1480 1483 1486 1489 1491 1493 1495 1496 1500 1503 1505 1509 1510 1510 1511 1513 1511 1511 1511 1510 1509 1508 1506 1507 1507 1508 1510 1513 1517
1486 1481 1487 1489 1491 1490 1494 1486 1491 1493 1494 1494 1485 1493 1477 1477 1480 1482 1485 1488 1490 1492 1495 1498 1501 1505 1507 1508 1509 1510 1510 1509 1509 1508 1507 1505 1504 1501 1501 1502 1502 1504 1507 1511
1481 1482 1485 1487 1485 1484 1490 1487 1490 1490 1490 1490 1486 1492 1473 1475 1478 1474 1479 1485 1487 1491 1492 1497 1499 1501 1505 1506 1508 1509 1509 1507 1506 1505 1503 1502 1499 1497 1496 1497 1498 1500 1503 1506
1474 1481 1479 1478 1480 1483 1484 1491 1491 1489 1484 1498 1482 1489 1477 1470 1475 1477 1480 1484 1488 1490 1492 1496 1497 1500 1504 1506 1507 1508 1508 1506 1505 1504 1501 1498 1496 1493 1493 1494 1494 1496 1499 1502
1475 1476 1474 1477 1480 1481 1486 1489 1499 1504 1498 1494 1488 1491 1476 1470 1478 1480 1481 1484 1487 1490 1493 1495 1497 1502 1504 1505 1507 1508 1508 1505 1504 1503 1500 1498 1496 1494 1492 1491 1492 1494 1496 1499
1478 1480 1468 1470 1472 1477 1483 1481 1482 1504 1492 1485 1492 1491 1471 1475 1478 1482 1483 1483 1487 1490 1494 1497 1501 1503 1505 1508 1509 1509 1509 1507 1505 1502 1500 1498 1496 1493 1491 1490 1492 1494 1496 1500
1472 1471 1461 1463 1465 1468 1477 1485 1468 1478 1473 1486 1471 1469 1467 1474 1476 1480 1481 1483 1486 1490 1495 1500 1504 1505 1506 1508 1509 1509 1508 1506 1506 1502 1501 1499 1497 1494 1493 1493 1494 1495 1498 1500
1460 1475 1456 1463 1466 1465 1468 1463 1482 1476 1497 1500 1474 1479 1472 1474 1473 1475 1479 1482 1487 1492 1497 1500 1503 1504 1507 1508 1509 1509 1509 1508 1506 1505 1502 1502 1499 1497 1496 1496 1497 1498 1500 1502
1459 1468 1461 1463 1466 1462 1472 1471 1467 1461 1469 1480 1484 1470 1456 1462 1468 1472 1478 1482 1487 1493 1497 1501 1503 1505 1507 1508 1508 1508 1509 1508 1507 1506 1504 1503 1502 1499 1500 1500 1501 1502 1503 1504
1456 1460 1466 1457 1447 1451 1450 1457 1459 1471 1478 1467 1472 1464 1460 1465 1470 1474 1478 1485 1487 1491 1497 1500 1503 1506 1508 1508 1508 1509 1509 1508 1507 1506 1505 1504 1504 1502 1502 1504 1504 1505 1506 1508
1456 1459 1466 1462 1457 1455 1457 1453 1455 1457 1461 1467 1474 1462 1461 1465 1469 1475 1479 1484 1489 1492 1496 1500 1503 1504 1506 1507 1508 1508 1508 1508 1506 1506 1506 1504 1504 1504 1504 1505 1506 1507 1508 1510
1458 1455 1457 1452 1451 1440 1457 1450 1450 1454 1462 1460 1460 1451 1459 1463 1467 1474 1482 1485 1491 1494 1497 1499 1502 1504 1505 1506 1506 1506 1507 1506 1506 1505 1507 1506 1507 1506 1506 1506 1507 1509 1509 1511
1454 1458 1450 1445 1445 1449 1445 1443 1446 1452 1450 1457 1450 1446 1444 1459 1468 1474 1482 1486 1491 1494 1497 1499 1501 1503 1504 1505 1505 1505 1506 1505 1505 1506 1507 1507 1507 1508 1509 1509 1509 1510 1511 1512
1454 1455 1449 1450 1445 1448 1452 1446 1444 1443 1442 1444 1444 1448 1453 1462 1470 1479 1484 1487 1491 1494 1497 1499 1500 1500 1500 1502 1503 1504 1504 1504 1504 1505 1506 1507 1508 1510 1511 1512 1513 1513 1515 1515
1452 1446 1454 1454 1444 1447 1455 1443 1446 1442 1444 1445 1453 1447 1455 1466 1472 1479 1485 1487 1490 1495 1497 1498 1498 1498 1497 1498 1498 1499 1501 1501 1502 1504 1505 1507 1508 1510 1512 1514 1515 1515 1516 1517
1452 1452 1447 1452 1450 1470 1448 1448 1449 1450 1447 1449 1452 1456 1459 1467 1476 1483 1486 1490 1493 1495 1497 1497 1496 1495 1494 1493 1491 1491 1493 1496 1499 1502 1504 1506 1509 1510 1511 1512 1514 1515 1516 1518
1450 1448 1448 1458 1454 1443 1450 1450 1450 1450 1447 1451 1454 1459 1463 1472 1481 1488 1491 1493 1494 1494 1494 1494 1493 1492 1489 1487 1486 1485 1486 1491 1495 1500 1504 1506 1506 1507 1508 1510 1512 1513 1514 1516
1450 1450 1447 1448 1459 1462 1445 1453 1456 1454 1453 1452 1456 1460 1465 1471 1470 1487 1491 1493 1493 1492 1492 1492 1491 1489 1487 1484 1482 1481 1483 1486 1492 1498 1500 1499 1503 1505 1507 1508 1510 1511 1512 1513
1449 1445 1450 1447 1455 1444 1450 1456 1457 1463 1456 1456 1458 1463 1467 1469 1478 1485 1490 1492 1491 1491 1492 1491 1490 1489 1486 1484 1482 1481 1482 1483 1487 1491 1495 1499 1502 1503 1504 1506 1508 1510 1511 1512
1443 1449 1444 1446 1452 1459 1454 1458 1459 1461 1461 1461 1463 1466 1473 1477 1481 1485 1488 1490 1492 1492 1492 1491 1490 1489 1487 1484 1482 1481 1482 1485 1487 1491 1494 1497 1500 1501 1502 1504 1507 1508 1509 1511
1458 1445 1442 1445 1449 1457 1460 1459 1463 1464 1465 1466 1468 1472 1474 1478 1481 1485 1487 1490 1492 1492 1491 1491 1490 1489 1488 1487 1485 1484 1484 1486 1488 1491 1495 1499 1502 1501 1505 1506 1508 1510 1513 1516
1449 1453 1448 1455 1456 1457 1460 1462 1463 1464 1467 1469 1472 1475 1477 1479 1483 1487 1489 1490 1492 1493 1492 1492 1491 1491 1491 1490 1490 1489 1490 1491 1492 1493 1498 1500 1501 1504 1509 1511 1516 1517 1519 1521
1447 1452 1449 1451 1455 1460 1463 1463 1464 1467 1470 1472 1474 1477 1479 1482 1485 1488 1490 1490 1492 1493 1493 1494 1493 1495 1496 1495 1497 1498 1498 1499 1499 1502 1505 1508 1511 1513 1515 1518 1522 1523 1525 1526
1447 1446 1448 1442 1450 1455 1459 1465 1467 1467 1471 1474 1474 1478 1481 1483 1487 1489 1490 1492 1493 1494 1495 1496 1498 1500 1501 1502 1504 1504 1505 1506 1508 1509 1513 1516 1518 1520 1522 1525 1527 1529 1530 1532